"Pseudo-MPEC" for ZK19721

Created 2018 May 20 11:18:12 UT using Find_Orb

Click here for an explanation of pseudo-MPECs

 
 Astrometry: 
     ZK19721  C2018 04 13=nAstrometryo;:Ba-91b=/5I%u3pD,'1c%!7h=T\fpPcW]VCtRiF51
     ZK19721  C2018 04 13w1d1'jUgKfm5EngfZ#R*TobkL_Ek4wx.^CcKn)?])3cpyDN,((!DF51
     ZK19721  C2018 04 13M')s'ta%w`35)Q`Q4%5qmxhFvR%x.I%5SR=M:v$T/9]:4)Y#BMR^F51
     ZK19721  C2018 04 13YW6A[p14HN;$tpg3S(gBe!Ee'!..TFBe7=F-N4/V*LZ$BH7P*YLoF51
     ZK19721  C2018 05 17.36899 16 14 25.85 +18 12 51.9          19.4 GUNEOCP703
     ZK19721  C2018 05 17.37420 16 14 25.47 +18 12 59.4          20.0 GUNEOCP703
     ZK19721  C2018 05 17.37942 16 14 24.95 +18 13 06.0          20.0 GUNEOCP703
     ZK19721  C2018 05 17.38464 16 14 24.55 +18 13 13.1                UNEOCP703
     ZK19721  C2018 05 17.42195 16 14 21.75 +18 14 01.2          20.0 GUNEOCPI52
     ZK19721  C2018 05 17.42254 16 14 21.69 +18 14 02.2          20.0 GUNEOCPI52
     ZK19721  C2018 05 17.42313 16 14 21.63 +18 14 02.5          20.3 GUNEOCPI52
     ZK19721  C2018 05 17.42372 16 14 21.61 +18 14 03.7          19.9 GUNEOCPI52
     ZK19721  C2018 05 17ZKZ;MB$[iFFZcGgl[PHe)iyQ[O[:U*Ndi-amh*mid16+#K[%7^.ZH01
     ZK19721  C2018 05 1779o@NcuX7!w[/^(QhP@RaV]\rCs0,-GEWgt@,2r)G[g)2/Y-at=xH01
     ZK19721  C2018 05 178yK6L[BZ)A7Jo1AC9_Dt'N`6-mR\1*N0Ud]7`qt(bxwM?yK2_o`@H01
     ZK19721  C2018 05 17CGV+n.gYmojHZ'9tR3nfA+SlrlbX2_YCjN+1-x[QGo2:id(lXnFTH01
     ZK19721  C2018 05 17.86692 16 13 48.77 +18 23 39.5          20.5 VSNEOCP033
     ZK19721  C2018 05 17.86939 16 13 48.58 +18 23 43.2          20.1 VSNEOCP033
     ZK19721  C2018 05 17.87186 16 13 48.41 +18 23 46.4          20.8 VSNEOCP033
     ZK19721 KC2018 05 17SSFKFb*2HcUlkaXy_9*`.=Uw']C:Qin*wn0CWnU%1eq#LOVeB`PWK87
     ZK19721 KC2018 05 17[(9rKSIo!-loqiLexredacted;+w=#i,0/)JiY($;AvANy6O,\x$K87
     ZK19721 KC2018 05 17%KCWV@u3tt*M#/p67tRXJs,Ic5Vy34X8W5IR06O0eVgtMX1!0CL]K87
     ZK19721  C2018 05 17.95601 16 13 41.87 +18 25 36.4          20.0 VSNEOCP033
     ZK19721  C2018 05 17.95847 16 13 41.72 +18 25 38.9          19.4 VSNEOCP033
     ZK19721  C2018 05 17.96095 16 13 41.51 +18 25 42.6          20.3 VSNEOCP033
     ZK19721 IC2018 05 17)O+S+s1D+Fm71]=`H(p5VwmAyWd%nmTne:Gqg2oLYcjy[*G=7tx^L01
     ZK19721 IC2018 05 18;Qp0dM3mX4dG3LZO6$(q.P4bAb:%$EO^/:eN'X`;B`bU3v^#gNbqL01
     ZK19721 KC2018 05 18%8%?q]?GAN;,VB?=]aWqDv/GwvO_Gld9K^1bW2]_Miob3,Jj,u5)L01
     ZK19721  C2018 05 18^65f?\2^v7vay-s\lF%bohu!lf.A!k%7K:WjQi(MZX4Yea;X-A@VH01
     ZK19721  C2018 05 18cWU\ev7V!([p`LG).tdgbCRI9d04+fw!wR7=(NM]V/Sp[CN0jacmH01
     ZK19721  C2018 05 18.21595 16 13 22.39 +18 31 15.2          19.7 GUNEOCPI52
     ZK19721  C2018 05 18.21807 16 13 22.22 +18 31 18.0          20.0 GUNEOCPI52
     ZK19721  C2018 05 18.22018 16 13 22.06 +18 31 21.1          19.4 GUNEOCPI52
     ZK19721  C2018 05 18.22230 16 13 21.90 +18 31 23.8          19.5 GUNEOCPI52
     ZK19721  C2018 05 18T'#h2CegAq$^yRe]ct6Y/kYSswcd9Wm.56tX!SM@kLMWc6QToaE)H01
     ZK19721  C2018 05 18:ZW\M8:uO1taf6o91`@^q)NI]wd\XU;57h'+='4Nv;lE.#+N;W2iH01
     ZK19721  C2018 05 19ZIgD`G;bk,+M8HTLwVl#G-)vd;eDdRBJseex?CLGpJKDG[!m^HG?H01
     ZK19721  C2018 05 19/P;skZq0g94A7T][Z_QR/v08w#v$o/Ud]ETd2nyS_-jtg)Ls8(o@H01
     ZK19721  C2018 05 19GYqG^@09+mm*XJWI/m*+w0XilMl3N%^Oc$:Vc-Jmc\c39fwWZ[1kH01
     ZK19721  C2018 05 19tT]!J*bYCgMP[$xx`a2SNcdbDZMi.'c(Qm.m'+ZT+eicch#$TVRqH01
     ZK19721  C2018 05 19.29420 16 11 59.23 +18 54 27.1          19.9 GUNEOCPI52
     ZK19721  C2018 05 19.29819 16 11 58.94 +18 54 32.3          19.9 GUNEOCPI52
     ZK19721  C2018 05 19.30043 16 11 58.73 +18 54 34.9          20.0 GUNEOCPI52
     ZK19721  C2018 05 19.30268 16 11 58.60 +18 54 37.9          19.6 GUNEOCPI52
     ZK19721  C2018 05 19.34404 16 11 55.22 +18 55 31.1          20.5 GUNEOCP703
     ZK19721  C2018 05 19.34934 16 11 54.83 +18 55 37.4          20.2 GUNEOCP703
     ZK19721  C2018 05 19.35463 16 11 54.40 +18 55 45.2          19.8 GUNEOCP703
     ZK19721  C2018 05 19.35992 16 11 53.96 +18 55 51.6          20.9 GUNEOCP703
     ZK19721  C2018 05 19tn;TA^bIdL+o?mcxwU^xG%f%^t[jk0_`dZDM]cSh2L5uM4M\riZsP93
     ZK19721  C2018 05 19I!x-O4QAD6'.q5.iBwUo2+vXXr!lF$GDewX=rVSSe$YT3wdXFPcBP93
     ZK19721  C2018 05 19QuT#v#!HHfyZ)q77$Vo8d\:;FLaQi)(]_o8cJ:ej9ytdjeh4equ=P93
     ZK19721 KC2018 05 20!hHEK*ccj2!-\;rMTK!rf:A'qpbiK*kpUv4@FsM)4y0BJ1:fw/]QK63
     ZK19721 KC2018 05 20*#F%07v@gd8-d2ZGF3WC8h7$?F;KPZN*`N0K?`k-J):4;O6bm_\PK63
     ZK19721 KC2018 05 20Y!wtLM.T2o\Bt(ec,H#t,04I$M#:#6;1B(?P:h36bir'R$*NEOCPK63

Station data:
(033) Karl Schwarzschild Observatory, Tautenburg  (N50.980140 E11.711240)
   Germany. 1.3-m Schmidt.
(703) Catalina Sky Survey  (N32.417006 W110.732640)  US/Arizona.  Observers
   E. J. Christensen, A. R. Gibbs, A. D. Grauer, R. E. Hill, J. A. Johnson,
   R. A. Kowalski, S. M. Larson, F. C. Shelly. 0.68 m Schmidt + CCD.
(F51) Pan-STARRS 1, Haleakala  (N20.707235 W156.255910)  US/Hawaii.
   Observers N. Primak, A. Schultz, S. Watters, J. Thiel, T. Goggia. Measurer
   PS1 Science Consortium. 1.8-m Ritchey-Chrétien + CCD.
(H01) Magdalena Ridge Observatory, Socorro  (N33.985151 W107.189200)  US/New
   Mexico.  Observers W. H. Ryan, E. V. Ryan. Measurer W. H. Ryan. 2.4-m
   f/8.9 reflector + CCD.
(I52) Steward Observatory, Mt. Lemmon Station  (N32.442547 W110.788920)
   US/Arizona.
(K63) G. Pascoli Observatory, Castelvecchio Pascoli  (N44.082410 E10.462000)
   Italy.
(K87) Dettelbach Vineyard Observatory  (N49.807693 E10.170110)  Germany.
(L01) Višnjan Observatory, Tičan  (N45.290900 E13.749300)  Croatia.
(P93) Space Tracking and Communications Center, JAXA  (N34.672353
   E133.544330)  Japan.

Orbital elements:  ZK19721
   Perihelion 2018 Oct 18.114661 +/- 0.0199 TT =  2:45:06 (JD 2458409.614661)
Epoch 2018 May 20.0 TT = JDT 2458258.5   Earth MOID: 0.1562   AutoNEOCP
M 324.70336 +/- 0.022               (J2000 ecliptic)
n   0.23357518 +/- 0.000139         Peri.  167.52010 +/- 0.014
a   2.61126879 +/- 0.00104          Node   192.38215 +/- 0.014
e   0.6815858 +/- 0.000148          Incl.   29.02272 +/- 0.008
P   4.22                   H 17.3   G  0.15   U  6.8  
q 0.83146498 +/- 0.000107    Q 4.39107261 +/- 0.00212
From 54 observations 2018 Apr. 13-May 20; mean residual 0".25
Residuals in arcseconds: 
180413 F51  .02-  .02+    180517 033  .16+  .20+    180519 H01  .13-  .05-    
180413 F51  .01+  .03+    180517 K87  .11-  .02+    180519 H01  .20-  .07+    
180413 F51  .06+  .00     180517 K87  .19-  .19+    180519 H01  .01+  .07-    
180413 F51  .05-  .05-    180517 K87  .17+  .34+    180519 H01  .10-  .13-    
180517 703  .57+  .48-    180517 033  .33-  .33+    180519 I52  .42-  .05-    
180517 703  .89+  .22+    180517 033  .25+  .37-    180519 I52  .02+  .03+    
180517 703  .78-  .01+    180517 033  .00   .10+    180519 I52  .40-  .25-    
180517 703  .74-  .30+    180517 L01  .42-  .04-    180519 I52  .33+  .14-    
180517 I52  .35+  .20-    180518 L01  .08+  .03-    180519 703  .33-  .01+    
180517 I52  .14+  .04+    180518 L01  .19+  .26-    180519 703  .20+  .48-    
180517 I52  .07-  .43-    180518 H01  .03-  .02-    180519 703  .15+  .55+    
180517 I52  .29+  .00     180518 H01  .06+  .03+    180519 703  .04-  .19+    
180517 H01  .08+  .02-    180518 I52  .15-  .29-    180519 P93  .17+  .48+    
180517 H01  .21+  .00     180518 I52  .21-  .26-    180519 P93  .12-  .15-    
180517 H01  .06+  .04+    180518 I52  .14-  .09+    180519 P93  .29+  .15+    
180517 H01  .12+  .16+    180518 I52  .06-  .02+    180520 K63  .10+  .18-    
180517 033  .12-  .24-    180518 H01  .02+  .06-    180520 K63  .28+  .03-    
180517 033  .12-  .23+    180518 H01  .03-  .02+    180520 K63  .12-  .08-    

Ephemerides (geocentric):
Date (UTC) HH   RA              Dec         delta   r     elong  mag " sig PA
---- -- -- --  ------------   ------------  ------ ------ -----  --- ---- ---
2018 05 20 11  16 10 27.534   +19 19 12.07  1.1916 2.0737 140.3 20.2  .14  62
2018 05 20 12  16 10 24.215   +19 20 04.78  1.1914 2.0733 140.3 20.2  .15  62
2018 05 20 13  16 10 20.893   +19 20 57.45  1.1911 2.0729 140.3 20.2  .15  62
2018 05 20 14  16 10 17.569   +19 21 50.10  1.1908 2.0726 140.3 20.2  .15  62
2018 05 20 15  16 10 14.242   +19 22 42.72  1.1905 2.0722 140.3 20.2  .16  62
2018 05 20 16  16 10 10.912   +19 23 35.31  1.1902 2.0719 140.2 20.2  .16  62
2018 05 20 17  16 10 07.580   +19 24 27.87  1.1899 2.0715 140.2 20.2  .16  62
2018 05 20 18  16 10 04.245   +19 25 20.41  1.1897 2.0711 140.2 20.2  .17  62
2018 05 20 19  16 10 00.908   +19 26 12.92  1.1894 2.0708 140.2 20.2  .17  62
2018 05 20 20  16 09 57.568   +19 27 05.40  1.1891 2.0704 140.2 20.2  .17  62
2018 05 20 21  16 09 54.225   +19 27 57.85  1.1888 2.0700 140.2 20.2  .18  62
2018 05 20 22  16 09 50.880   +19 28 50.28  1.1885 2.0697 140.1 20.2  .18  62
2018 05 20 23  16 09 47.532   +19 29 42.67  1.1883 2.0693 140.1 20.2  .18  62
2018 05 21 00  16 09 44.182   +19 30 35.04  1.1880 2.0689 140.1 20.2  .19  62
2018 05 21 01  16 09 40.829   +19 31 27.38  1.1877 2.0686 140.1 20.2  .19  62
2018 05 21 02  16 09 37.473   +19 32 19.69  1.1874 2.0682 140.1 20.2  .19  62
2018 05 21 03  16 09 34.115   +19 33 11.98  1.1871 2.0679 140.1 20.2  .20  62
2018 05 21 04  16 09 30.754   +19 34 04.23  1.1869 2.0675 140.1 20.2  .20  62
2018 05 21 05  16 09 27.391   +19 34 56.45  1.1866 2.0671 140.0 20.2  .21  61
2018 05 21 06  16 09 24.025   +19 35 48.65  1.1863 2.0668 140.0 20.2  .21  61
2018 05 21 07  16 09 20.657   +19 36 40.82  1.1860 2.0664 140.0 20.2  .21  61
2018 05 21 08  16 09 17.286   +19 37 32.96  1.1858 2.0660 140.0 20.2  .22  61
2018 05 21 09  16 09 13.912   +19 38 25.07  1.1855 2.0657 140.0 20.2  .22  61
2018 05 21 10  16 09 10.536   +19 39 17.15  1.1852 2.0653 140.0 20.2  .22  61
2018 05 21 11  16 09 07.157   +19 40 09.20  1.1849 2.0649 139.9 20.2  .23  61
2018 05 21 12  16 09 03.776   +19 41 01.22  1.1847 2.0646 139.9 20.2  .23  61
2018 05 21 13  16 09 00.393   +19 41 53.22  1.1844 2.0642 139.9 20.2  .23  61
2018 05 21 14  16 08 57.007   +19 42 45.18  1.1841 2.0639 139.9 20.2  .24  61
2018 05 21 15  16 08 53.618   +19 43 37.11  1.1838 2.0635 139.9 20.2  .24  61
2018 05 21 16  16 08 50.227   +19 44 29.02  1.1836 2.0631 139.8 20.2  .24  61
2018 05 21 17  16 08 46.833   +19 45 20.89  1.1833 2.0628 139.8 20.2  .25  61
2018 05 21 18  16 08 43.437   +19 46 12.74  1.1830 2.0624 139.8 20.2  .25  61
2018 05 21 19  16 08 40.038   +19 47 04.55  1.1827 2.0620 139.8 20.2  .25  61
2018 05 21 20  16 08 36.637   +19 47 56.34  1.1825 2.0617 139.8 20.2  .26  61
2018 05 21 21  16 08 33.234   +19 48 48.09  1.1822 2.0613 139.8 20.2  .26  61
2018 05 21 22  16 08 29.827   +19 49 39.82  1.1819 2.0609 139.7 20.2  .26  61
2018 05 21 23  16 08 26.419   +19 50 31.51  1.1817 2.0606 139.7 20.2  .27  61
2018 05 22 00  16 08 23.008   +19 51 23.18  1.1814 2.0602 139.7 20.2  .27  61
2018 05 22 01  16 08 19.594   +19 52 14.81  1.1811 2.0598 139.7 20.2  .28  61
2018 05 22 02  16 08 16.178   +19 53 06.41  1.1809 2.0595 139.7 20.2  .28  61
2018 05 22 03  16 08 12.760   +19 53 57.99  1.1806 2.0591 139.7 20.2  .28  61
2018 05 22 04  16 08 09.339   +19 54 49.53  1.1803 2.0588 139.6 20.2  .29  61
2018 05 22 05  16 08 05.916   +19 55 41.04  1.1801 2.0584 139.6 20.2  .29  61
2018 05 22 06  16 08 02.490   +19 56 32.52  1.1798 2.0580 139.6 20.2  .29  60
2018 05 22 07  16 07 59.062   +19 57 23.97  1.1795 2.0577 139.6 20.2  .30  60
2018 05 22 08  16 07 55.631   +19 58 15.39  1.1793 2.0573 139.6 20.2  .30  60
2018 05 22 09  16 07 52.198   +19 59 06.78  1.1790 2.0569 139.5 20.2  .30  60
2018 05 22 10  16 07 48.763   +19 59 58.14  1.1787 2.0566 139.5 20.2  .31  60